TimePDT,TemperatureF,Dew PointF,Humidity,Sea Level PressureIn,VisibilityMPH,Wind Direction,Wind SpeedMPH,Gust SpeedMPH,PrecipitationIn,Events,Conditions,WindDirDegrees,DateUTC
12:56 AM,55.0,34.0,45,29.95,10.0,Calm,Calm,-,N/A,,Clear,0,2012-08-12 07:56:00
1:56 AM,54.0,35.1,49,29.95,10.0,Calm,Calm,-,N/A,,Clear,0,2012-08-12 08:56:00
2:56 AM,53.1,36.0,52,29.95,10.0,Calm,Calm,-,N/A,,Clear,0,2012-08-12 09:56:00
3:56 AM,52.0,37.0,57,29.95,10.0,Calm,Calm,-,N/A,,Clear,0,2012-08-12 10:56:00
4:56 AM,54.0,37.9,55,29.95,10.0,Calm,Calm,-,N/A,,Clear,0,2012-08-12 11:56:00
5:56 AM,52.0,39.0,61,29.96,10.0,Calm,Calm,-,N/A,,Clear,0,2012-08-12 12:56:00
6:56 AM,52.0,39.0,61,29.98,10.0,Calm,Calm,-,N/A,,Clear,0,2012-08-12 13:56:00
7:56 AM,63.0,46.9,56,29.98,10.0,Calm,Calm,-,N/A,,Clear,0,2012-08-12 14:56:00
8:56 AM,73.0,52.0,48,29.97,10.0,Calm,Calm,-,N/A,,Clear,0,2012-08-12 15:56:00
9:56 AM,82.0,46.9,29,29.96,10.0,Calm,Calm,-,N/A,,Clear,0,2012-08-12 16:56:00
10:56 AM,90.0,43.0,19,29.95,10.0,Calm,Calm,-,N/A,,Clear,0,2012-08-12 17:56:00
11:56 AM,93.9,37.9,14,29.95,10.0,Calm,Calm,-,N/A,,Clear,0,2012-08-12 18:56:00
12:56 PM,96.1,33.1,11,29.94,10.0,Calm,Calm,-,N/A,,Clear,0,2012-08-12 19:56:00
1:56 PM,97.0,30.9,10,29.94,10.0,Variable,3.5,-,N/A,,Clear,0,2012-08-12 20:56:00
2:56 PM,98.1,30.0,9,29.92,10.0,Calm,Calm,-,N/A,,Clear,0,2012-08-12 21:56:00
3:56 PM,97.0,30.9,10,29.91,10.0,Calm,Calm,-,N/A,,Clear,0,2012-08-12 22:56:00
4:56 PM,95.0,35.1,12,29.90,10.0,Calm,Calm,-,N/A,,Clear,0,2012-08-12 23:56:00
5:56 PM,91.9,33.1,12,29.90,10.0,Variable,3.5,-,N/A,,Clear,0,2012-08-13 00:56:00
6:56 PM,89.1,32.0,13,29.91,10.0,Calm,Calm,-,N/A,,Clear,0,2012-08-13 01:56:00
7:56 PM,79.0,37.0,22,29.92,10.0,Calm,Calm,-,N/A,,Clear,0,2012-08-13 02:56:00
8:56 PM,71.1,42.1,35,29.94,10.0,Calm,Calm,-,N/A,,Clear,0,2012-08-13 03:56:00
9:56 PM,66.9,39.0,36,29.96,10.0,North,3.5,-,N/A,,Clear,360,2012-08-13 04:56:00
10:56 PM,64.9,37.0,36,29.96,10.0,ENE,4.6,-,N/A,,Clear,60,2012-08-13 05:56:00
11:56 PM,61.0,37.9,42,29.97,10.0,Calm,Calm,-,N/A,,Clear,0,2012-08-13 06:56:00